Regional Weather Roundup
Issued by NWS

Home | Current Version | Previous Version | Text Only | Print | Product List | Glossary On
Versions: 1 2 3 4 5 6 7 8 9 10 11 12 13 14 15 16 17 18 19 20 21 22 23 24 25 26 27 28 29 30 31 32 33 34 35 36 37 38 39 40 41 42 43 44 45 46 47 48 49 50
000
ASUS46 KSEW 060810
RWRWA

WASHINGTON REGIONAL WEATHER ROUNDUP
NATIONAL WEATHER SERVICE SEATTLE WA
1200 AM PST FRI MAR 06 2015

NOTE:"FAIR" INDICATES FEW OR NO CLOUDS BELOW 12,000 FEET WITH NO
SIGNIFICANT WEATHER AND/OR OBSTRUCTIONS TO VISIBILITY.

WAZ505-507>509-060900-
SEATTLE, TACOMA, EVERETT, AND VICINITY

CITY           SKY/WX    TMP DP  RH WIND       PRES   REMARKS
EVERETT        PTCLDY    41  35  79 CALM      30.39F
BOEING FIELD   PTCLDY    46  38  73 CALM      30.40S
RENTON         PTCLDY    41  34  76 CALM      30.40S
SEATAC AIRPORT MOCLDY    44  36  73 N5        30.39S
JBLM-MCCHORD   PTCLDY    35  33  93 S2        30.38F
PUYALLUP       FAIR      36  34  93 CALM      30.38S
BREMERTON      PTCLDY    34  32  93 CALM      30.41S
JBLM-FT LEWIS  PTCLDY    37  34  91 CALM      30.38S
TACOMA NARROWS PTCLDY    44  34  67 CALM      30.39S
$$

WAZ001-503-506-510-514-515-060900-
NORTH INTERIOR

CITY           SKY/WX    TMP DP  RH WIND       PRES   REMARKS
BELLINGHAM     CLEAR     35  31  85 CALM      30.40F
FRIDAY HARBOR    N/A     36  35  96 CALM      30.42R
EASTSOUND      CLEAR     37  36  93 CALM      30.40S
PORT ANGELES   PTCLDY    34  32  92 S3        30.40R
NAS WHIDBEY    PTCLDY    37  32  82 SE5       30.41S
ARLINGTON      CLEAR     36  28  75 N3        30.42S
BURLINGTON     CLEAR     41  36  81 NE7       30.42S
$$

WAZ020-022-039-040-504-511-512-060900-
SOUTHWEST INTERIOR

CITY           SKY/WX    TMP DP  RH WIND       PRES   REMARKS
SHELTON        PTCLDY    32  31  96 CALM      30.37F
OLYMPIA        PTCLDY    35  31  85 CALM      30.39F
CHEHALIS       FAIR      37  36  93 CALM      30.39S
KELSO          CLEAR     37  32  81 CALM      30.42S
VANCOUVER      CLEAR     38  32  79 CALM      30.38S
SCAPPOOSE, OR  CLEAR     38  36  92 W3        30.38R
PORTLAND, OR   CLEAR     42  36  79 CALM      30.39R
$$

WAZ021-516-517-060900-
WASHINGTON COAST

CITY           SKY/WX    TMP DP  RH WIND       PRES   REMARKS
FORKS          PTCLDY    37  36  96 CALM      30.37F
HOQUIAM        PTCLDY    40  36  86 E6        30.37S
ASTORIA, OR    CLEAR     39  35  86 E3        30.35S
$$

WAZ019-023-024-040-518-519-060900-
CASCADE MOUNTAINS AND COLUMBIA GORGE

CITY           SKY/WX    TMP DP  RH WIND       PRES   REMARKS
TROUTDALE, OR  CLEAR     40  34  79 E5        30.37S
THE DALLES, OR CLEAR     40  32  73 E8        30.36S
$$

WAZ026-027-041>044-520-521-060900-
EAST SLOPES

CITY           SKY/WX    TMP DP  RH WIND       PRES   REMARKS
OMAK           CLOUDY    37  25  61 CALM      30.34F
WENATCHEE      CLOUDY    44  30  57 CALM      30.34R
ELLENSBURG     CLOUDY    42  29  59 E5        30.32S
YAKIMA         PTCLDY    33  27  78 MISG      30.35S
$$

WAZ028-034-035-060900-
COLUMBIA BASIN

CITY           SKY/WX    TMP DP  RH WIND       PRES   REMARKS
EPHRATA        MOCLDY    37  28  70 CALM      30.34R
MOSES LAKE     MOCLDY    34  26  72 N6        30.35S
PASCO          CLEAR     29  25  85 NW6       30.37R
HERMISTON, OR  PTCLDY    34  27  75 S6        30.35S
$$

WAZ036>038-060900-
NORTHEAST WASHINGTON

CITY           SKY/WX    TMP DP  RH WIND       PRES   REMARKS
SPOKANE GEIGER PTCLDY    35  22  58 SE7       30.32S
SPOKANE FELTS  PTCLDY    34  23  64 NE5       30.35S
FAIRCHILD AFB  PTCLDY    37  22  53 S1        30.32S
COEURDALENE,ID CLEAR     28  21  74 CALM      30.34S
DEER PARK      PTCLDY    27  21  78 CALM      30.34R
$$

WAZ029>033-060900-
SOUTHEAST WASHINGTON

CITY           SKY/WX    TMP DP  RH WIND       PRES   REMARKS
PULLMAN        CLEAR     32  23  69 CALM      30.36S
LEWISTON, ID   CLEAR     36  26  67 S6        30.37R
WALLA WALLA    CLEAR     41  26  55 SE5       30.34S
PENDLETON, OR  PTCLDY    40  27  59 SE13      30.34F
$$


USA.gov is the U.S. government's official web portal to all federal, state and local government web resources and services.